Location: Unspecified
(49.2170°N, 0.0000°E)
Time: 10:34:56
(UTC+00:00)

Vanguard 2 Rocket - Pass Details

Date: 27 January 2021
Orbit: 554 x 3326 km, 32.9° (Epoch: 25 February)

Event Time Altitude Azimuth Distance (km) Brightness Sun altitude
Rises 17:04:09 0° 256° (WSW) 6,153 13.4 -3.1°
Reaches altitude 10° 17:09:32 10° 247° (WSW) 4,644 12.6 -3.9°
Maximum altitude 17:18:46 27° 197° (SSW) 2,558 9.7 -5.3°
Drops below altitude 10° 17:24:49 10° 142° (SE) 2,948 9.4 -6.2°
Sets 17:27:24 0° 129° (SE) 3,607 9.7 -6.6°
